Time,TemperatureF,DewpointF,PressureIn,WindDirection,WindDirectionDegrees,WindSpeedMPH,WindSpeedGustMPH,Humidity,HourlyPrecipIn,Conditions,Clouds,dailyrainin,SoftwareType,DateUTC
2013-03-03 00:03:00,32.7,25.0,29.69,ESE,113,0.0,11.4,73,0.00,,,0.00,heavyweathercustom,2013-03-03 05:03:00,
2013-03-03 00:10:00,32.7,25.0,29.70,East,90,0.0,11.4,73,0.00,,,0.00,heavyweathercustom,2013-03-03 05:10:00,
2013-03-03 00:20:00,32.7,25.3,29.70,East,90,6.8,11.4,74,0.00,,,0.00,heavyweathercustom,2013-03-03 05:20:00,
2013-03-03 00:33:00,32.5,25.2,29.70,ENE,68,0.0,12.5,74,0.00,,,0.00,heavyweathercustom,2013-03-03 05:33:00,
2013-03-03 00:40:00,32.4,25.1,29.69,ENE,68,0.0,24.6,74,0.00,,,0.00,heavyweathercustom,2013-03-03 05:40:00,
2013-03-03 00:50:00,32.2,24.9,29.70,East,90,3.3,24.6,74,0.00,,,0.00,heavyweathercustom,2013-03-03 05:50:00,
2013-03-03 01:03:00,32.2,24.9,29.69,ESE,113,3.3,24.6,74,0.00,,,0.00,heavyweathercustom,2013-03-03 06:03:00,
2013-03-03 01:10:00,32.2,24.5,29.69,East,90,6.8,12.2,73,0.00,,,0.00,heavyweathercustom,2013-03-03 06:10:00,
2013-03-03 01:33:00,32.2,24.2,29.70,SW,225,0.0,12.2,72,0.00,,,0.00,heavyweathercustom,2013-03-03 06:33:00,
2013-03-03 01:40:00,32.2,24.2,29.69,SW,225,0.0,13.8,72,0.00,,,0.00,heavyweathercustom,2013-03-03 06:40:00,
2013-03-03 01:50:00,32.2,23.9,29.69,ESE,113,0.0,13.8,71,0.00,,,0.00,heavyweathercustom,2013-03-03 06:50:00,
2013-03-03 02:03:00,32.2,23.9,29.69,South,180,0.0,13.8,71,0.00,,,0.00,heavyweathercustom,2013-03-03 07:03:00,
2013-03-03 02:10:00,32.0,23.7,29.69,ENE,68,6.8,13.1,71,0.00,,,0.00,heavyweathercustom,2013-03-03 07:10:00,
2013-03-03 02:20:00,31.8,23.5,29.69,East,90,10.1,13.1,71,0.00,,,0.00,heavyweathercustom,2013-03-03 07:20:00,
2013-03-03 02:33:00,31.6,23.6,29.69,SSW,203,0.0,13.1,72,0.00,,,0.00,heavyweathercustom,2013-03-03 07:33:00,
2013-03-03 02:40:00,31.5,23.2,29.68,South,180,0.0,9.8,71,0.00,,,0.00,heavyweathercustom,2013-03-03 07:40:00,
2013-03-03 02:50:00,31.8,23.5,29.68,WNW,293,0.0,9.8,71,0.00,,,0.00,heavyweathercustom,2013-03-03 07:50:00,
2013-03-03 03:03:00,31.6,23.3,29.67,ENE,68,0.0,9.8,71,0.00,,,0.00,heavyweathercustom,2013-03-03 08:03:00,
2013-03-03 03:10:00,31.5,23.2,29.69,SSE,158,0.0,9.8,71,0.00,,,0.00,heavyweathercustom,2013-03-03 08:10:00,
2013-03-03 03:20:00,31.3,23.0,29.69,ENE,68,0.0,9.8,71,0.00,,,0.00,heavyweathercustom,2013-03-03 08:20:00,
2013-03-03 03:33:00,31.3,22.7,29.69,ESE,113,0.0,12.8,70,0.00,,,0.00,heavyweathercustom,2013-03-03 08:33:00,
2013-03-03 03:40:00,31.1,22.5,29.68,ENE,68,3.3,15.7,70,0.00,,,0.00,heavyweathercustom,2013-03-03 08:40:00,
2013-03-03 03:50:00,31.1,22.5,29.68,East,90,0.0,15.7,70,0.00,,,0.00,heavyweathercustom,2013-03-03 08:50:00,
2013-03-03 04:03:00,31.1,22.1,29.67,SSW,203,0.0,15.7,69,0.00,,,0.00,heavyweathercustom,2013-03-03 09:03:00,
2013-03-03 04:10:00,30.9,21.9,29.68,NE,45,0.0,11.1,69,0.00,,,0.00,heavyweathercustom,2013-03-03 09:10:00,
2013-03-03 04:20:00,31.1,22.1,29.68,ENE,68,0.0,11.1,69,0.00,,,0.00,heavyweathercustom,2013-03-03 09:20:00,
2013-03-03 04:33:00,31.1,21.8,29.68,West,270,0.0,11.1,68,0.00,,,0.00,heavyweathercustom,2013-03-03 09:33:00,
2013-03-03 04:40:00,31.1,21.4,29.69,SSW,203,0.0,11.1,67,0.00,,,0.00,heavyweathercustom,2013-03-03 09:40:00,
2013-03-03 04:50:00,31.1,21.4,29.69,East,90,0.0,13.4,67,0.00,,,0.00,heavyweathercustom,2013-03-03 09:50:00,
2013-03-03 05:03:00,31.1,21.4,29.70,East,90,3.3,13.4,67,0.00,,,0.00,heavyweathercustom,2013-03-03 10:03:00,
2013-03-03 05:10:00,30.9,20.9,29.69,WSW,248,0.0,20.7,66,0.00,,,0.00,heavyweathercustom,2013-03-03 10:10:00,
2013-03-03 05:20:00,31.1,21.4,29.69,SE,135,0.0,20.7,67,0.00,,,0.00,heavyweathercustom,2013-03-03 10:20:00,
2013-03-03 05:33:00,30.9,20.9,29.69,East,90,0.0,20.7,66,0.00,,,0.00,heavyweathercustom,2013-03-03 10:33:00,
2013-03-03 05:40:00,30.7,20.7,29.69,ENE,68,0.0,20.7,66,0.00,,,0.00,heavyweathercustom,2013-03-03 10:40:00,
2013-03-03 05:50:00,30.7,20.7,29.69,ESE,113,0.0,10.4,66,0.00,,,0.00,heavyweathercustom,2013-03-03 10:50:00,
2013-03-03 06:03:00,30.7,20.7,29.69,SSW,203,0.0,10.4,66,0.00,,,0.00,heavyweathercustom,2013-03-03 11:03:00,
2013-03-03 06:10:00,30.7,21.1,29.70,WSW,248,0.0,10.4,67,0.00,,,0.00,heavyweathercustom,2013-03-03 11:10:00,
2013-03-03 06:20:00,30.7,20.7,29.70,ESE,113,0.0,10.4,66,0.00,,,0.00,heavyweathercustom,2013-03-03 11:20:00,
2013-03-03 06:33:00,30.7,20.7,29.71,WSW,248,3.3,11.4,66,0.00,,,0.00,heavyweathercustom,2013-03-03 11:33:00,
2013-03-03 06:40:00,30.6,20.3,29.70,East,90,3.3,11.4,65,0.00,,,0.00,heavyweathercustom,2013-03-03 11:40:00,
2013-03-03 06:50:00,30.6,20.3,29.70,East,90,3.3,11.4,65,0.00,,,0.00,heavyweathercustom,2013-03-03 11:50:00,
2013-03-03 07:03:00,30.7,20.3,29.70,East,90,0.0,11.4,65,0.00,,,0.00,heavyweathercustom,2013-03-03 12:03:00,
2013-03-03 07:10:00,30.7,20.3,29.71,West,270,0.0,18.8,65,0.00,,,0.00,heavyweathercustom,2013-03-03 12:10:00,
2013-03-03 07:20:00,30.6,19.9,29.71,ESE,113,0.0,18.8,64,0.00,,,0.00,heavyweathercustom,2013-03-03 12:20:00,
2013-03-03 07:33:00,30.7,20.0,29.71,East,90,0.0,18.8,64,0.00,,,0.00,heavyweathercustom,2013-03-03 12:33:00,
2013-03-03 07:40:00,30.6,19.9,29.71,East,90,0.0,13.8,64,0.00,,,0.00,heavyweathercustom,2013-03-03 12:40:00,
2013-03-03 07:50:00,30.7,20.0,29.71,South,180,0.0,13.8,64,0.00,,,0.00,heavyweathercustom,2013-03-03 12:50:00,
2013-03-03 08:03:00,30.7,20.0,29.70,SSW,203,0.0,13.8,64,0.00,,,0.00,heavyweathercustom,2013-03-03 13:03:00,
2013-03-03 08:10:00,30.9,20.2,29.71,ESE,113,0.0,27.1,64,0.00,,,0.00,heavyweathercustom,2013-03-03 13:10:00,
2013-03-03 08:20:00,31.1,20.4,29.71,West,270,0.0,27.1,64,0.00,,,0.00,heavyweathercustom,2013-03-03 13:20:00,
2013-03-03 08:33:00,31.1,20.0,29.70,East,90,3.3,27.1,63,0.00,,,0.00,heavyweathercustom,2013-03-03 13:33:00,
2013-03-03 08:40:00,31.1,20.0,29.70,ENE,68,0.0,27.1,63,0.00,,,0.00,heavyweathercustom,2013-03-03 13:40:00,
2013-03-03 08:50:00,31.8,20.7,29.70,East,90,3.3,10.1,63,0.00,,,0.00,heavyweathercustom,2013-03-03 13:50:00,
2013-03-03 09:03:00,32.2,21.0,29.70,South,180,0.0,10.1,63,0.00,,,0.00,heavyweathercustom,2013-03-03 14:03:00,
2013-03-03 09:10:00,32.5,21.3,29.70,East,90,0.0,10.1,63,0.00,,,0.00,heavyweathercustom,2013-03-03 14:10:00,
2013-03-03 09:20:00,32.5,21.3,29.70,SE,135,0.0,10.1,63,0.00,,,0.00,heavyweathercustom,2013-03-03 14:20:00,
2013-03-03 09:33:00,32.7,21.1,29.69,East,90,0.0,12.2,62,0.00,,,0.00,heavyweathercustom,2013-03-03 14:33:00,
2013-03-03 09:40:00,32.7,21.1,29.69,East,90,0.0,11.4,62,0.00,,,0.00,heavyweathercustom,2013-03-03 14:40:00,
2013-03-03 09:50:00,32.7,21.1,29.70,North,0,0.0,11.4,62,0.00,,,0.00,heavyweathercustom,2013-03-03 14:50:00,
2013-03-03 10:03:00,32.7,21.1,29.70,South,180,0.0,11.4,62,0.00,,,0.00,heavyweathercustom,2013-03-03 15:03:00,
2013-03-03 10:10:00,32.9,20.9,29.70,WNW,293,0.0,11.4,61,0.00,,,0.00,heavyweathercustom,2013-03-03 15:10:00,
2013-03-03 10:20:00,32.9,20.9,29.70,SSW,203,0.0,11.4,61,0.00,,,0.00,heavyweathercustom,2013-03-03 15:20:00,
2013-03-03 10:33:00,32.9,20.9,29.70,ESE,113,0.0,10.4,61,0.00,,,0.00,heavyweathercustom,2013-03-03 15:33:00,
2013-03-03 10:40:00,33.3,21.3,29.69,ENE,68,15.7,15.7,61,0.00,,,0.00,heavyweathercustom,2013-03-03 15:40:00,
2013-03-03 10:50:00,33.1,21.1,29.69,East,90,0.0,15.7,61,0.00,,,0.00,heavyweathercustom,2013-03-03 15:50:00,
2013-03-03 11:03:00,33.3,21.3,29.69,East,90,0.0,15.7,61,0.00,,,0.00,heavyweathercustom,2013-03-03 16:03:00,
2013-03-03 11:10:00,33.4,21.4,29.69,East,90,0.0,15.7,61,0.00,,,0.00,heavyweathercustom,2013-03-03 16:10:00,
2013-03-03 11:20:00,33.3,21.3,29.69,SW,225,0.0,11.1,61,0.00,,,0.00,heavyweathercustom,2013-03-03 16:20:00,
2013-03-03 11:33:00,33.6,21.6,29.69,East,90,0.0,11.1,61,0.00,,,0.00,heavyweathercustom,2013-03-03 16:33:00,
2013-03-03 11:40:00,34.2,22.2,29.68,ESE,113,0.0,12.5,61,0.00,,,0.00,heavyweathercustom,2013-03-03 16:40:00,
2013-03-03 11:50:00,34.2,21.8,29.68,ESE,113,0.0,12.5,60,0.00,,,0.00,heavyweathercustom,2013-03-03 16:50:00,
2013-03-03 12:03:00,34.2,21.8,29.68,ESE,113,0.0,12.5,60,0.00,,,0.00,heavyweathercustom,2013-03-03 17:03:00,
2013-03-03 12:10:00,34.0,21.6,29.67,ESE,113,0.0,12.5,60,0.00,,,0.00,heavyweathercustom,2013-03-03 17:10:00,
2013-03-03 12:20:00,34.0,21.6,29.66,NNE,23,0.0,11.1,60,0.00,,,0.00,heavyweathercustom,2013-03-03 17:20:00,
2013-03-03 12:33:00,34.2,21.8,29.66,SE,135,0.0,11.1,60,0.00,,,0.00,heavyweathercustom,2013-03-03 17:33:00,
2013-03-03 12:40:00,34.3,21.9,29.66,East,90,6.8,11.1,60,0.00,,,0.00,heavyweathercustom,2013-03-03 17:40:00,
2013-03-03 12:50:00,34.3,21.9,29.65,SSW,203,0.0,11.1,60,0.00,,,0.00,heavyweathercustom,2013-03-03 17:50:00,
2013-03-03 13:03:00,34.5,22.1,29.65,ESE,113,0.0,12.5,60,0.00,,,0.00,heavyweathercustom,2013-03-03 18:03:00,
2013-03-03 13:10:00,34.9,22.0,29.65,NE,45,6.8,12.5,59,0.00,,,0.00,heavyweathercustom,2013-03-03 18:10:00,
2013-03-03 13:20:00,35.2,21.9,29.64,South,180,0.0,12.5,58,0.00,,,0.00,heavyweathercustom,2013-03-03 18:20:00,
2013-03-03 13:33:00,35.4,22.1,29.64,ESE,113,6.8,14.4,58,0.00,,,0.00,heavyweathercustom,2013-03-03 18:33:00,
2013-03-03 13:40:00,35.4,22.1,29.63,East,90,0.0,14.1,58,0.00,,,0.00,heavyweathercustom,2013-03-03 18:40:00,
2013-03-03 13:50:00,35.8,22.5,29.63,ESE,113,0.0,14.1,58,0.00,,,0.00,heavyweathercustom,2013-03-03 18:50:00,
2013-03-03 14:03:00,36.3,23.0,29.63,West,270,0.0,14.1,58,0.00,,,0.00,heavyweathercustom,2013-03-03 19:03:00,
2013-03-03 14:10:00,36.3,22.5,29.63,NNW,338,0.0,11.4,57,0.00,,,0.00,heavyweathercustom,2013-03-03 19:10:00,
2013-03-03 14:33:00,37.2,23.4,29.63,WSW,248,0.0,11.4,57,0.00,,,0.00,heavyweathercustom,2013-03-03 19:33:00,
2013-03-03 14:40:00,37.6,23.3,29.63,SSE,158,0.0,11.4,56,0.00,,,0.00,heavyweathercustom,2013-03-03 19:40:00,
2013-03-03 14:50:00,37.8,23.5,29.63,SSW,203,0.0,13.4,56,0.00,,,0.00,heavyweathercustom,2013-03-03 19:50:00,
2013-03-03 15:03:00,37.9,23.6,29.63,ESE,113,0.0,13.4,56,0.00,,,0.00,heavyweathercustom,2013-03-03 20:03:00,
2013-03-03 15:10:00,37.9,23.2,29.62,East,90,3.3,9.8,55,0.00,,,0.00,heavyweathercustom,2013-03-03 20:10:00,
2013-03-03 15:20:00,38.1,23.4,29.63,East,90,0.0,9.8,55,0.00,,,0.00,heavyweathercustom,2013-03-03 20:20:00,
2013-03-03 15:33:00,38.5,23.8,29.63,SSW,203,0.0,9.8,55,0.00,,,0.00,heavyweathercustom,2013-03-03 20:33:00,
2013-03-03 15:40:00,38.8,24.0,29.62,ESE,113,0.0,9.8,55,0.00,,,0.00,heavyweathercustom,2013-03-03 20:40:00,
2013-03-03 15:50:00,38.8,23.6,29.62,East,90,3.3,9.8,54,0.00,,,0.00,heavyweathercustom,2013-03-03 20:50:00,
2013-03-03 16:03:00,38.8,23.6,29.63,ESE,113,0.0,14.7,54,0.00,,,0.00,heavyweathercustom,2013-03-03 21:03:00,
2013-03-03 16:10:00,38.7,23.5,29.63,East,90,3.3,14.7,54,0.00,,,0.00,heavyweathercustom,2013-03-03 21:10:00,
2013-03-03 16:20:00,38.5,23.8,29.64,NNE,23,0.0,10.1,55,0.00,,,0.00,heavyweathercustom,2013-03-03 21:20:00,
2013-03-03 16:33:00,38.3,24.0,29.64,SW,225,0.0,10.1,56,0.00,,,0.00,heavyweathercustom,2013-03-03 21:33:00,
2013-03-03 16:40:00,38.1,24.2,29.64,East,90,0.0,11.7,57,0.00,,,0.00,heavyweathercustom,2013-03-03 21:40:00,
2013-03-03 16:50:00,37.9,24.0,29.64,ENE,68,6.8,11.7,57,0.00,,,0.00,heavyweathercustom,2013-03-03 21:50:00,
2013-03-03 17:03:00,37.6,23.8,29.64,ESE,113,3.3,11.7,57,0.00,,,0.00,heavyweathercustom,2013-03-03 22:03:00,
2013-03-03 17:10:00,37.4,23.6,29.64,ESE,113,0.0,11.7,57,0.00,,,0.00,heavyweathercustom,2013-03-03 22:10:00,
2013-03-03 17:20:00,37.0,23.2,29.64,SW,225,0.0,11.7,57,0.00,,,0.00,heavyweathercustom,2013-03-03 22:20:00,
2013-03-03 17:33:00,36.7,22.9,29.65,ENE,68,0.0,11.7,57,0.00,,,0.00,heavyweathercustom,2013-03-03 22:33:00,
2013-03-03 17:40:00,36.3,23.0,29.65,East,90,0.0,25.1,58,0.00,,,0.00,heavyweathercustom,2013-03-03 22:40:00,
2013-03-03 17:50:00,36.1,22.8,29.66,SE,135,0.0,25.1,58,0.00,,,0.00,heavyweathercustom,2013-03-03 22:50:00,
2013-03-03 18:03:00,35.8,22.5,29.66,South,180,3.3,25.1,58,0.00,,,0.00,heavyweathercustom,2013-03-03 23:03:00,
2013-03-03 18:10:00,35.8,22.5,29.67,South,180,0.0,25.1,58,0.00,,,0.00,heavyweathercustom,2013-03-03 23:10:00,
2013-03-03 18:20:00,35.8,22.9,29.66,ENE,68,6.8,25.1,59,0.00,,,0.00,heavyweathercustom,2013-03-03 23:20:00,
2013-03-03 18:33:00,35.4,22.9,29.67,WSW,248,0.0,14.1,60,0.00,,,0.00,heavyweathercustom,2013-03-03 23:33:00,
2013-03-03 18:40:00,35.2,22.3,29.67,SE,135,0.0,14.1,59,0.00,,,0.00,heavyweathercustom,2013-03-03 23:40:00,
2013-03-03 18:50:00,34.9,22.0,29.67,WNW,293,0.0,14.1,59,0.00,,,0.00,heavyweathercustom,2013-03-03 23:50:00,
2013-03-03 19:03:00,34.9,22.0,29.67,WSW,248,0.0,14.1,59,0.00,,,0.00,heavyweathercustom,2013-03-04 00:03:00,
2013-03-03 19:10:00,34.9,22.0,29.68,ENE,68,3.3,13.4,59,0.00,,,0.00,heavyweathercustom,2013-03-04 00:10:00,
2013-03-03 19:20:00,34.7,21.9,29.69,ENE,68,0.0,13.4,59,0.00,,,0.00,heavyweathercustom,2013-03-04 00:20:00,
2013-03-03 19:33:00,34.7,21.9,29.69,ESE,113,6.8,13.4,59,0.00,,,0.00,heavyweathercustom,2013-03-04 00:33:00,
2013-03-03 19:40:00,34.3,21.1,29.70,SSE,158,0.0,24.6,58,0.00,,,0.00,heavyweathercustom,2013-03-04 00:40:00,
2013-03-03 19:50:00,34.3,21.1,29.69,SE,135,0.0,24.6,58,0.00,,,0.00,heavyweathercustom,2013-03-04 00:50:00,
2013-03-03 20:03:00,34.0,20.8,29.70,SSE,158,0.0,24.6,58,0.00,,,0.00,heavyweathercustom,2013-03-04 01:03:00,
2013-03-03 20:10:00,33.8,21.0,29.70,ESE,113,0.0,22.0,59,0.00,,,0.00,heavyweathercustom,2013-03-04 01:10:00,
2013-03-03 20:20:00,33.6,20.8,29.70,East,90,13.4,22.0,59,0.00,,,0.00,heavyweathercustom,2013-03-04 01:20:00,
2013-03-03 20:33:00,33.3,20.5,29.71,East,90,0.0,22.0,59,0.00,,,0.00,heavyweathercustom,2013-03-04 01:33:00,
2013-03-03 20:40:00,33.1,20.4,29.70,East,90,3.3,26.2,59,0.00,,,0.00,heavyweathercustom,2013-03-04 01:40:00,
2013-03-03 20:50:00,32.7,20.0,29.71,ENE,68,0.0,26.2,59,0.00,,,0.00,heavyweathercustom,2013-03-04 01:50:00,
2013-03-03 21:03:00,32.7,20.0,29.71,SE,135,0.0,26.2,59,0.00,,,0.00,heavyweathercustom,2013-03-04 02:03:00,
2013-03-03 21:10:00,32.4,19.7,29.71,South,180,0.0,23.9,59,0.00,,,0.00,heavyweathercustom,2013-03-04 02:10:00,
2013-03-03 21:20:00,32.4,19.7,29.71,SW,225,0.0,23.9,59,0.00,,,0.00,heavyweathercustom,2013-03-04 02:20:00,
2013-03-03 21:33:00,32.4,20.1,29.72,East,90,0.0,23.9,60,0.00,,,0.00,heavyweathercustom,2013-03-04 02:33:00,
2013-03-03 21:40:00,32.4,19.7,29.72,East,90,6.8,14.1,59,0.00,,,0.00,heavyweathercustom,2013-03-04 02:40:00,
2013-03-03 21:50:00,32.2,19.9,29.72,East,90,6.8,14.1,60,0.00,,,0.00,heavyweathercustom,2013-03-04 02:50:00,
2013-03-03 22:03:00,32.2,19.9,29.72,ENE,68,3.3,14.1,60,0.00,,,0.00,heavyweathercustom,2013-03-04 03:03:00,
2013-03-03 22:10:00,31.8,19.5,29.72,East,90,0.0,14.1,60,0.00,,,0.00,heavyweathercustom,2013-03-04 03:10:00,
2013-03-03 22:20:00,31.6,19.3,29.72,SSE,158,3.3,14.1,60,0.00,,,0.00,heavyweathercustom,2013-03-04 03:20:00,
2013-03-03 22:33:00,31.3,19.4,29.72,South,180,0.0,14.1,61,0.00,,,0.00,heavyweathercustom,2013-03-04 03:33:00,
2013-03-03 22:40:00,31.1,19.2,29.72,East,90,3.3,14.1,61,0.00,,,0.00,heavyweathercustom,2013-03-04 03:40:00,
2013-03-03 22:50:00,31.1,19.2,29.72,East,90,6.8,14.1,61,0.00,,,0.00,heavyweathercustom,2013-03-04 03:50:00,
2013-03-03 23:03:00,30.7,18.9,29.72,East,90,0.0,14.1,61,0.00,,,0.00,heavyweathercustom,2013-03-04 04:03:00,
2013-03-03 23:10:00,30.7,19.2,29.72,ESE,113,0.0,15.7,62,0.00,,,0.00,heavyweathercustom,2013-03-04 04:10:00,
2013-03-03 23:20:00,30.6,19.1,29.72,ESE,113,0.0,15.7,62,0.00,,,0.00,heavyweathercustom,2013-03-04 04:20:00,
2013-03-03 23:33:00,30.4,19.0,29.72,East,90,0.0,15.7,62,0.00,,,0.00,heavyweathercustom,2013-03-04 04:33:00,
2013-03-03 23:40:00,30.2,18.4,29.73,West,270,0.0,25.1,61,0.00,,,0.00,heavyweathercustom,2013-03-04 04:40:00,
2013-03-03 23:50:00,30.0,18.2,29.73,SW,225,0.0,25.1,61,0.00,,,0.00,heavyweathercustom,2013-03-04 04:50:00,